Location: Franzen
(48.6167°N, 15.3833°E)
Time: 18:39:28
(UTC+00:00)

A-11 Canister half - Pass Details

Date: 31 July 2021
Orbit: 1515 x 1685 km, 47.2° (Epoch: 19 September)

Event Time Altitude Azimuth Distance (km) Brightness Sun altitude
Rises 19:17:41 0° 271° (W) 4,856 12.6 -6.4°
Reaches altitude 10° 19:20:47 10° 271° (W) 3,889 12.0 -6.8°
Maximum altitude 19:30:49 83° 185° (S) 1,691 9.2 -8.1°
Drops below altitude 10° 19:41:02 10° 100° (E) 3,950 10.6 -9.4°
Enters shadow 19:43:01 - 100° (E) 4,567 11.0 -9.6°
Sets 19:44:12 0° 100° (E) 4,934 - -9.8°
